Time,TemperatureF,DewpointF,PressureIn,WindDirection,WindDirectionDegrees,WindSpeedMPH,WindSpeedGustMPH,Humidity,HourlyPrecipIn,Conditions,Clouds,dailyrainin,SoftwareType,DateUTC
2013-06-21 00:01:00,66.3,57.5,30.06,WNW,300,0.0,4.0,73,0.00,,,0.00,WUHU216DAVISVP2,2013-06-21 04:01:00,
2013-06-21 00:02:00,66.2,57.4,30.06,WNW,300,0.0,4.0,73,0.00,,,0.00,WUHU216DAVISVP2,2013-06-21 04:02:00,
2013-06-21 00:07:00,65.9,57.1,30.06,WNW,298,1.0,2.0,73,0.00,,,0.00,WUHU216DAVISVP2,2013-06-21 04:07:00,
2013-06-21 00:12:00,66.2,57.1,30.06,WNW,284,0.0,2.0,72,0.00,,,0.00,WUHU216DAVISVP2,2013-06-21 04:12:00,
2013-06-21 00:16:00,66.1,57.0,30.06,WNW,285,2.0,2.0,72,0.00,,,0.00,WUHU216DAVISVP2,2013-06-21 04:16:00,
2013-06-21 00:21:00,66.1,56.8,30.07,WNW,297,1.0,3.0,72,0.00,,,0.00,WUHU216DAVISVP2,2013-06-21 04:21:00,
2013-06-21 00:26:00,66.1,57.0,30.07,WNW,298,3.0,3.0,72,0.00,,,0.00,WUHU216DAVISVP2,2013-06-21 04:26:00,
2013-06-21 00:31:00,66.2,57.1,30.07,NW,304,3.0,4.0,72,0.00,,,0.00,WUHU216DAVISVP2,2013-06-21 04:31:00,
2013-06-21 00:36:00,66.2,57.1,30.07,WNW,294,2.0,4.0,72,0.00,,,0.00,WUHU216DAVISVP2,2013-06-21 04:36:00,
2013-06-21 00:42:00,66.1,57.0,30.07,WNW,300,2.0,4.0,72,0.00,,,0.00,WUHU216DAVISVP2,2013-06-21 04:42:00,
2013-06-21 00:46:00,66.1,57.0,30.07,WNW,302,1.0,4.0,72,0.00,,,0.00,WUHU216DAVISVP2,2013-06-21 04:46:00,
2013-06-21 00:52:00,66.0,56.9,30.06,NW,305,2.0,4.0,72,0.00,,,0.00,WUHU216DAVISVP2,2013-06-21 04:52:00,
2013-06-21 00:57:00,65.8,56.7,30.07,NW,309,1.0,5.0,72,0.00,,,0.00,WUHU216DAVISVP2,2013-06-21 04:57:00,
2013-06-21 01:01:00,65.7,56.6,30.07,WNW,301,3.0,5.0,72,0.00,,,0.00,WUHU216DAVISVP2,2013-06-21 05:01:00,
2013-06-21 01:06:00,65.6,56.8,30.07,WNW,298,2.0,5.0,73,0.00,,,0.00,WUHU216DAVISVP2,2013-06-21 05:06:00,
2013-06-21 01:11:00,65.5,56.6,30.07,WNW,290,1.0,5.0,73,0.00,,,0.00,WUHU216DAVISVP2,2013-06-21 05:11:00,
2013-06-21 01:16:00,65.3,56.6,30.06,WNW,298,3.0,4.0,73,0.00,,,0.00,WUHU216DAVISVP2,2013-06-21 05:16:00,
2013-06-21 01:21:00,65.0,56.6,30.06,NW,304,1.0,4.0,74,0.00,,,0.00,WUHU216DAVISVP2,2013-06-21 05:21:00,
2013-06-21 01:26:00,65.0,56.5,30.06,WNW,296,3.0,4.0,74,0.00,,,0.00,WUHU216DAVISVP2,2013-06-21 05:26:00,
2013-06-21 01:31:00,65.0,56.3,30.06,WNW,291,1.0,6.0,73,0.00,,,0.00,WUHU216DAVISVP2,2013-06-21 05:31:00,
2013-06-21 01:36:00,65.0,56.3,30.06,WNW,295,2.0,6.0,73,0.00,,,0.00,WUHU216DAVISVP2,2013-06-21 05:36:00,
2013-06-21 01:41:00,65.1,55.8,30.06,WNW,302,2.0,6.0,72,0.00,,,0.00,WUHU216DAVISVP2,2013-06-21 05:41:00,
2013-06-21 01:46:00,65.2,55.6,30.06,WNW,290,2.0,6.0,71,0.00,,,0.00,WUHU216DAVISVP2,2013-06-21 05:46:00,
2013-06-21 01:51:00,65.2,55.7,30.06,NW,307,4.0,5.0,71,0.00,,,0.00,WUHU216DAVISVP2,2013-06-21 05:51:00,
2013-06-21 01:56:00,65.3,55.4,30.06,NW,324,2.0,6.0,70,0.00,,,0.00,WUHU216DAVISVP2,2013-06-21 05:56:00,
2013-06-21 02:01:00,65.6,55.3,30.06,WNW,298,4.0,7.0,69,0.00,,,0.00,WUHU216DAVISVP2,2013-06-21 06:01:00,
2013-06-21 02:06:00,66.1,55.0,30.06,WNW,297,6.0,7.0,67,0.00,,,0.00,WUHU216DAVISVP2,2013-06-21 06:06:00,
2013-06-21 02:11:00,66.1,55.0,30.06,WNW,300,5.0,7.0,67,0.00,,,0.00,WUHU216DAVISVP2,2013-06-21 06:11:00,
2013-06-21 02:16:00,66.2,55.1,30.06,WNW,300,2.0,7.0,67,0.00,,,0.00,WUHU216DAVISVP2,2013-06-21 06:16:00,
2013-06-21 02:22:00,66.0,54.9,30.06,WNW,300,1.0,7.0,67,0.00,,,0.00,WUHU216DAVISVP2,2013-06-21 06:22:00,
2013-06-21 02:26:00,65.8,54.7,30.06,WNW,302,3.0,7.0,67,0.00,,,0.00,WUHU216DAVISVP2,2013-06-21 06:26:00,
2013-06-21 02:31:00,65.8,54.5,30.05,NW,311,2.0,7.0,67,0.00,,,0.00,WUHU216DAVISVP2,2013-06-21 06:31:00,
2013-06-21 02:36:00,65.6,54.5,30.05,WNW,302,3.0,7.0,67,0.00,,,0.00,WUHU216DAVISVP2,2013-06-21 06:36:00,
2013-06-21 02:41:00,65.7,55.0,30.05,West,271,2.0,7.0,68,0.00,,,0.00,WUHU216DAVISVP2,2013-06-21 06:41:00,
2013-06-21 02:46:00,65.6,54.9,30.05,WSW,253,2.0,5.0,68,0.00,,,0.00,WUHU216DAVISVP2,2013-06-21 06:46:00,
2013-06-21 02:51:00,65.4,54.7,30.05,WNW,294,2.0,5.0,68,0.00,,,0.00,WUHU216DAVISVP2,2013-06-21 06:51:00,
2013-06-21 02:56:00,65.3,55.0,30.05,WNW,300,1.0,5.0,69,0.00,,,0.00,WUHU216DAVISVP2,2013-06-21 06:56:00,
2013-06-21 03:01:00,65.3,54.9,30.05,WNW,294,2.0,5.0,69,0.00,,,0.00,WUHU216DAVISVP2,2013-06-21 07:01:00,
2013-06-21 03:06:00,65.2,54.9,30.05,WNW,300,3.0,5.0,69,0.00,,,0.00,WUHU216DAVISVP2,2013-06-21 07:06:00,
2013-06-21 03:11:00,65.1,55.2,30.05,WNW,292,0.0,5.0,70,0.00,,,0.00,WUHU216DAVISVP2,2013-06-21 07:11:00,
2013-06-21 03:16:00,64.9,55.0,30.05,WNW,298,3.0,5.0,70,0.00,,,0.00,WUHU216DAVISVP2,2013-06-21 07:16:00,
2013-06-21 03:21:00,64.7,55.2,30.04,NW,305,4.0,5.0,71,0.00,,,0.00,WUHU216DAVISVP2,2013-06-21 07:21:00,
2013-06-21 03:26:00,64.7,55.6,30.05,NW,316,3.0,6.0,72,0.00,,,0.00,WUHU216DAVISVP2,2013-06-21 07:26:00,
2013-06-21 03:31:00,64.5,55.3,30.04,NW,313,3.0,6.0,72,0.00,,,0.00,WUHU216DAVISVP2,2013-06-21 07:31:00,
2013-06-21 03:36:00,64.4,55.7,30.04,WNW,290,2.0,6.0,73,0.00,,,0.00,WUHU216DAVISVP2,2013-06-21 07:36:00,
2013-06-21 03:41:00,64.1,55.4,30.04,WNW,295,1.0,6.0,73,0.00,,,0.00,WUHU216DAVISVP2,2013-06-21 07:41:00,
2013-06-21 03:46:00,63.8,55.5,30.04,NW,305,2.0,5.0,74,0.00,,,0.00,WUHU216DAVISVP2,2013-06-21 07:46:00,
2013-06-21 03:51:00,63.6,55.6,30.04,WNW,286,2.0,4.0,75,0.00,,,0.00,WUHU216DAVISVP2,2013-06-21 07:51:00,
2013-06-21 03:56:00,63.6,55.6,30.04,WNW,285,2.0,6.0,75,0.00,,,0.00,WUHU216DAVISVP2,2013-06-21 07:56:00,
2013-06-21 04:01:00,63.6,56.0,30.03,WNW,301,3.0,6.0,76,0.00,,,0.00,WUHU216DAVISVP2,2013-06-21 08:01:00,
2013-06-21 04:06:00,63.5,56.3,30.03,WNW,297,2.0,6.0,77,0.00,,,0.00,WUHU216DAVISVP2,2013-06-21 08:06:00,
2013-06-21 04:11:00,63.4,56.1,30.03,WNW,302,2.0,6.0,77,0.00,,,0.00,WUHU216DAVISVP2,2013-06-21 08:11:00,
2013-06-21 04:16:00,63.5,56.2,30.03,NW,309,3.0,6.0,77,0.00,,,0.00,WUHU216DAVISVP2,2013-06-21 08:16:00,
2013-06-21 04:21:00,63.5,56.5,30.03,NW,309,3.0,6.0,78,0.00,,,0.00,WUHU216DAVISVP2,2013-06-21 08:21:00,
2013-06-21 04:26:00,63.4,56.5,30.03,NW,307,0.0,6.0,78,0.00,,,0.00,WUHU216DAVISVP2,2013-06-21 08:26:00,
2013-06-21 04:31:00,63.5,56.9,30.03,WNW,301,4.0,6.0,79,0.00,,,0.00,WUHU216DAVISVP2,2013-06-21 08:31:00,
2013-06-21 04:36:00,63.5,56.9,30.03,NW,304,2.0,7.0,79,0.00,,,0.00,WUHU216DAVISVP2,2013-06-21 08:36:00,
2013-06-21 04:41:00,63.5,56.9,30.03,NW,311,1.0,7.0,79,0.00,,,0.00,WUHU216DAVISVP2,2013-06-21 08:41:00,
2013-06-21 04:46:00,63.5,56.9,30.03,WNW,302,4.0,7.0,79,0.00,,,0.00,WUHU216DAVISVP2,2013-06-21 08:46:00,
2013-06-21 04:51:00,63.5,57.3,30.03,West,273,6.0,7.0,80,0.00,,,0.00,WUHU216DAVISVP2,2013-06-21 08:51:00,
2013-06-21 04:56:00,63.4,57.2,30.03,NW,311,2.0,6.0,80,0.00,,,0.00,WUHU216DAVISVP2,2013-06-21 08:56:00,
2013-06-21 05:01:00,63.4,57.2,30.03,NW,306,2.0,6.0,80,0.00,,,0.00,WUHU216DAVISVP2,2013-06-21 09:01:00,
2013-06-21 05:06:00,63.4,57.2,30.02,NW,319,5.0,6.0,80,0.00,,,0.00,WUHU216DAVISVP2,2013-06-21 09:06:00,
2013-06-21 05:11:00,63.4,57.5,30.02,NNW,328,3.0,6.0,81,0.00,,,0.00,WUHU216DAVISVP2,2013-06-21 09:11:00,
2013-06-21 05:16:00,63.4,57.5,30.02,NNW,333,2.0,6.0,81,0.00,,,0.00,WUHU216DAVISVP2,2013-06-21 09:16:00,
2013-06-21 05:21:00,63.4,57.5,30.02,WNW,288,1.0,6.0,81,0.00,,,0.00,WUHU216DAVISVP2,2013-06-21 09:21:00,
2013-06-21 05:26:00,63.4,57.5,30.02,NW,321,2.0,5.0,81,0.00,,,0.00,WUHU216DAVISVP2,2013-06-21 09:26:00,
2013-06-21 05:31:00,63.3,57.7,30.02,NNW,342,1.0,4.0,82,0.00,,,0.00,WUHU216DAVISVP2,2013-06-21 09:31:00,
2013-06-21 05:36:00,63.2,57.7,30.02,NNW,342,0.0,4.0,82,0.00,,,0.00,WUHU216DAVISVP2,2013-06-21 09:36:00,
2013-06-21 05:41:00,63.1,57.6,30.02,NW,315,1.0,3.0,82,0.00,,,0.00,WUHU216DAVISVP2,2013-06-21 09:41:00,
2013-06-21 05:46:00,63.1,57.9,30.02,WNW,300,0.0,3.0,83,0.00,,,0.00,WUHU216DAVISVP2,2013-06-21 09:46:00,
2013-06-21 05:51:00,63.2,58.0,30.03,WNW,284,1.0,2.0,83,0.00,,,0.00,WUHU216DAVISVP2,2013-06-21 09:51:00,
2013-06-21 05:56:00,63.3,58.1,30.03,WNW,298,2.0,4.0,83,0.00,,,0.00,WUHU216DAVISVP2,2013-06-21 09:56:00,
2013-06-21 06:01:00,63.3,58.1,30.03,NW,309,2.0,4.0,83,0.00,,,0.00,WUHU216DAVISVP2,2013-06-21 10:01:00,
2013-06-21 06:06:00,63.2,58.0,30.03,West,281,1.0,4.0,83,0.00,,,0.00,WUHU216DAVISVP2,2013-06-21 10:06:00,
2013-06-21 06:11:00,63.1,57.9,30.03,WNW,292,1.0,4.0,83,0.00,,,0.00,WUHU216DAVISVP2,2013-06-21 10:11:00,
2013-06-21 06:16:00,63.0,57.8,30.02,WNW,301,0.0,4.0,83,0.00,,,0.00,WUHU216DAVISVP2,2013-06-21 10:16:00,
2013-06-21 06:21:00,62.9,58.0,30.02,NW,323,2.0,4.0,84,0.00,,,0.00,WUHU216DAVISVP2,2013-06-21 10:21:00,
2013-06-21 06:26:00,62.9,58.0,30.02,NW,305,2.0,4.0,84,0.00,,,0.00,WUHU216DAVISVP2,2013-06-21 10:26:00,
2013-06-21 06:31:00,63.0,58.1,30.02,WNW,294,1.0,4.0,84,0.00,,,0.00,WUHU216DAVISVP2,2013-06-21 10:31:00,
2013-06-21 06:36:00,62.9,58.0,30.02,NW,316,1.0,4.0,84,0.00,,,0.00,WUHU216DAVISVP2,2013-06-21 10:36:00,
2013-06-21 06:41:00,62.9,58.0,30.02,WNW,294,2.0,4.0,84,0.00,,,0.00,WUHU216DAVISVP2,2013-06-21 10:41:00,
2013-06-21 06:46:00,63.0,58.1,30.02,WNW,297,1.0,4.0,84,0.00,,,0.00,WUHU216DAVISVP2,2013-06-21 10:46:00,
2013-06-21 06:51:00,63.0,58.1,30.02,WNW,297,2.0,4.0,84,0.00,,,0.00,WUHU216DAVISVP2,2013-06-21 10:51:00,
2013-06-21 06:56:00,63.2,58.3,30.02,NW,315,3.0,4.0,84,0.00,,,0.00,WUHU216DAVISVP2,2013-06-21 10:56:00,
2013-06-21 07:01:00,63.5,58.6,30.03,WNW,292,0.0,4.0,84,0.00,,,0.00,WUHU216DAVISVP2,2013-06-21 11:01:00,
2013-06-21 07:06:00,63.8,58.9,30.03,WNW,292,0.0,4.0,84,0.00,,,0.00,WUHU216DAVISVP2,2013-06-21 11:06:00,
2013-06-21 07:11:00,64.0,59.1,30.04,WNW,293,0.0,4.0,84,0.00,,,0.00,WUHU216DAVISVP2,2013-06-21 11:11:00,
2013-06-21 07:16:00,64.3,59.0,30.04,NE,51,0.0,4.0,83,0.00,,,0.00,WUHU216DAVISVP2,2013-06-21 11:16:00,
2013-06-21 07:21:00,64.5,59.2,30.04,NW,323,0.0,0.0,83,0.00,,,0.00,WUHU216DAVISVP2,2013-06-21 11:21:00,
2013-06-21 07:26:00,64.7,59.4,30.04,NW,323,0.0,0.0,83,0.00,,,0.00,WUHU216DAVISVP2,2013-06-21 11:26:00,
2013-06-21 07:31:00,65.1,59.8,30.04,NW,323,0.0,0.0,83,0.00,,,0.00,WUHU216DAVISVP2,2013-06-21 11:31:00,
2013-06-21 07:36:00,65.4,60.1,30.04,NNE,25,2.0,2.0,83,0.00,,,0.00,WUHU216DAVISVP2,2013-06-21 11:36:00,
2013-06-21 07:41:00,65.9,60.3,30.05,NNE,15,1.0,2.0,82,0.00,,,0.00,WUHU216DAVISVP2,2013-06-21 11:41:00,
2013-06-21 07:46:00,66.4,60.8,30.04,NW,308,3.0,3.0,82,0.00,,,0.00,WUHU216DAVISVP2,2013-06-21 11:46:00,
2013-06-21 07:51:00,66.9,60.9,30.04,WNW,300,0.0,3.0,81,0.00,,,0.00,WUHU216DAVISVP2,2013-06-21 11:51:00,
2013-06-21 07:56:00,67.4,61.1,30.03,WNW,282,3.0,4.0,80,0.00,,,0.00,WUHU216DAVISVP2,2013-06-21 11:56:00,
2013-06-21 08:01:00,67.9,61.6,30.03,NW,315,2.0,4.0,80,0.00,,,0.00,WUHU216DAVISVP2,2013-06-21 12:01:00,
2013-06-21 08:06:00,68.3,61.6,30.03,NW,316,1.0,4.0,79,0.00,,,0.00,WUHU216DAVISVP2,2013-06-21 12:06:00,
2013-06-21 08:11:00,68.8,62.1,30.03,NW,325,2.0,4.0,79,0.00,,,0.00,WUHU216DAVISVP2,2013-06-21 12:11:00,
2013-06-21 08:16:00,69.0,62.3,30.03,WNW,294,0.0,4.0,79,0.00,,,0.00,WUHU216DAVISVP2,2013-06-21 12:16:00,
2013-06-21 08:21:00,69.4,62.3,30.02,NW,304,3.0,4.0,78,0.00,,,0.00,WUHU216DAVISVP2,2013-06-21 12:21:00,
2013-06-21 08:26:00,69.6,62.5,30.02,NW,319,0.0,6.0,78,0.00,,,0.00,WUHU216DAVISVP2,2013-06-21 12:26:00,
2013-06-21 08:31:00,70.1,63.0,30.02,NNW,347,0.0,6.0,78,0.00,,,0.00,WUHU216DAVISVP2,2013-06-21 12:31:00,
2013-06-21 08:36:00,70.5,63.4,30.02,North,357,0.0,6.0,78,0.00,,,0.00,WUHU216DAVISVP2,2013-06-21 12:36:00,
2013-06-21 08:41:00,70.8,63.4,30.02,NW,311,2.0,6.0,77,0.00,,,0.00,WUHU216DAVISVP2,2013-06-21 12:41:00,
2013-06-21 08:46:00,71.3,63.5,30.01,NNE,20,3.0,5.0,76,0.00,,,0.00,WUHU216DAVISVP2,2013-06-21 12:46:00,
2013-06-21 08:51:00,71.9,63.7,30.01,North,351,1.0,5.0,75,0.00,,,0.00,WUHU216DAVISVP2,2013-06-21 12:51:00,
2013-06-21 08:56:00,72.2,63.2,30.01,NW,309,3.0,7.0,73,0.00,,,0.00,WUHU216DAVISVP2,2013-06-21 12:56:00,
2013-06-21 09:01:00,72.5,63.5,30.01,ENE,58,0.0,8.0,73,0.00,,,0.00,WUHU216DAVISVP2,2013-06-21 13:01:00,
2013-06-21 09:06:00,72.7,63.5,30.01,NNW,346,3.0,8.0,73,0.00,,,0.00,WUHU216DAVISVP2,2013-06-21 13:06:00,
2013-06-21 09:11:00,73.1,64.3,30.01,NNW,339,3.0,7.0,74,0.00,,,0.00,WUHU216DAVISVP2,2013-06-21 13:11:00,
2013-06-21 09:16:00,73.3,64.1,30.02,North,358,4.0,7.0,73,0.00,,,0.00,WUHU216DAVISVP2,2013-06-21 13:16:00,
2013-06-21 09:21:00,73.9,64.5,30.02,NE,50,6.0,7.0,72,0.00,,,0.00,WUHU216DAVISVP2,2013-06-21 13:21:00,
2013-06-21 09:26:00,74.0,64.6,30.02,NNW,328,2.0,7.0,72,0.00,,,0.00,WUHU216DAVISVP2,2013-06-21 13:26:00,
2013-06-21 09:31:00,74.5,64.7,30.03,North,352,2.0,7.0,71,0.00,,,0.00,WUHU216DAVISVP2,2013-06-21 13:31:00,
2013-06-21 09:36:00,74.5,64.7,30.03,NNE,26,3.0,7.0,71,0.00,,,0.00,WUHU216DAVISVP2,2013-06-21 13:36:00,
2013-06-21 09:41:00,74.5,64.3,30.03,North,1,5.0,9.0,70,0.00,,,0.00,WUHU216DAVISVP2,2013-06-21 13:41:00,
2013-06-21 09:46:00,74.7,64.5,30.03,ENE,57,4.0,9.0,70,0.00,,,0.00,WUHU216DAVISVP2,2013-06-21 13:46:00,
2013-06-21 09:51:00,74.8,65.0,30.03,North,356,3.0,8.0,71,0.00,,,0.00,WUHU216DAVISVP2,2013-06-21 13:51:00,
2013-06-21 09:56:00,75.4,65.9,30.02,ENE,65,1.0,8.0,72,0.00,,,0.00,WUHU216DAVISVP2,2013-06-21 13:56:00,
2013-06-21 10:01:00,75.5,64.8,30.02,NE,39,2.0,8.0,69,0.00,,,0.00,WUHU216DAVISVP2,2013-06-21 14:01:00,
2013-06-21 10:07:00,75.6,65.3,30.02,NE,49,6.0,8.0,70,0.00,,,0.00,WUHU216DAVISVP2,2013-06-21 14:07:00,
2013-06-21 10:12:00,75.7,65.0,30.01,North,356,3.0,8.0,69,0.00,,,0.00,WUHU216DAVISVP2,2013-06-21 14:12:00,
2013-06-21 10:17:00,76.0,65.3,30.02,North,360,3.0,11.0,69,0.00,,,0.00,WUHU216DAVISVP2,2013-06-21 14:17:00,
2013-06-21 10:22:00,76.1,65.4,30.02,North,1,3.0,11.0,69,0.00,,,0.00,WUHU216DAVISVP2,2013-06-21 14:22:00,
2013-06-21 10:27:00,76.5,65.6,30.02,NNE,27,6.0,10.0,69,0.00,,,0.00,WUHU216DAVISVP2,2013-06-21 14:27:00,
2013-06-21 10:32:00,76.8,65.7,30.01,NNW,347,6.0,10.0,68,0.00,,,0.00,WUHU216DAVISVP2,2013-06-21 14:32:00,
2013-06-21 10:37:00,77.2,66.5,30.02,NNE,30,3.0,8.0,69,0.00,,,0.00,WUHU216DAVISVP2,2013-06-21 14:37:00,
2013-06-21 10:42:00,77.4,66.2,30.03,SE,125,2.0,8.0,68,0.00,,,0.00,WUHU216DAVISVP2,2013-06-21 14:42:00,
2013-06-21 10:47:00,77.6,66.4,30.02,North,5,5.0,8.0,68,0.00,,,0.00,WUHU216DAVISVP2,2013-06-21 14:47:00,
2013-06-21 10:52:00,78.1,67.3,30.02,NE,40,1.0,8.0,69,0.00,,,0.00,WUHU216DAVISVP2,2013-06-21 14:52:00,
2013-06-21 10:57:00,78.8,66.3,30.03,NNE,30,6.0,8.0,65,0.00,,,0.00,WUHU216DAVISVP2,2013-06-21 14:57:00,
2013-06-21 11:02:00,79.3,67.2,30.03,NE,34,3.0,8.0,66,0.00,,,0.00,WUHU216DAVISVP2,2013-06-21 15:02:00,
2013-06-21 11:07:00,79.4,65.9,30.03,NNW,347,4.0,10.0,63,0.00,,,0.00,WUHU216DAVISVP2,2013-06-21 15:07:00,
2013-06-21 11:13:00,79.6,66.1,30.03,NNE,26,6.0,10.0,63,0.00,,,0.00,WUHU216DAVISVP2,2013-06-21 15:13:00,
2013-06-21 11:18:00,79.6,66.1,30.03,NE,56,5.0,10.0,63,0.00,,,0.00,WUHU216DAVISVP2,2013-06-21 15:18:00,
2013-06-21 11:23:00,79.9,66.0,30.03,North,11,5.0,10.0,62,0.00,,,0.00,WUHU216DAVISVP2,2013-06-21 15:23:00,
2013-06-21 11:28:00,80.0,65.1,30.02,NNW,341,3.0,10.0,60,0.00,,,0.00,WUHU216DAVISVP2,2013-06-21 15:28:00,
2013-06-21 11:33:00,80.0,65.1,30.02,NNE,16,5.0,13.0,60,0.00,,,0.00,WUHU216DAVISVP2,2013-06-21 15:33:00,
2013-06-21 11:38:00,80.2,66.2,30.01,NNE,32,6.0,13.0,62,0.00,,,0.00,WUHU216DAVISVP2,2013-06-21 15:38:00,
2013-06-21 11:43:00,80.5,65.6,30.01,North,11,5.0,12.0,60,0.00,,,0.00,WUHU216DAVISVP2,2013-06-21 15:43:00,
2013-06-21 11:48:00,80.7,65.8,30.01,NNE,12,6.0,12.0,60,0.00,,,0.00,WUHU216DAVISVP2,2013-06-21 15:48:00,
2013-06-21 11:53:00,80.9,66.0,30.01,NNE,29,5.0,9.0,60,0.00,,,0.00,WUHU216DAVISVP2,2013-06-21 15:53:00,
2013-06-21 11:58:00,81.2,67.2,30.01,NNE,22,1.0,9.0,62,0.00,,,0.00,WUHU216DAVISVP2,2013-06-21 15:58:00,
2013-06-21 12:03:00,81.2,66.2,30.01,ENE,68,8.0,13.0,60,0.00,,,0.00,WUHU216DAVISVP2,2013-06-21 16:03:00,
2013-06-21 12:08:00,81.1,65.6,30.00,ENE,60,5.0,13.0,59,0.00,,,0.00,WUHU216DAVISVP2,2013-06-21 16:08:00,
2013-06-21 12:13:00,81.1,65.6,30.00,NNE,16,6.0,12.0,59,0.00,,,0.00,WUHU216DAVISVP2,2013-06-21 16:13:00,
2013-06-21 12:18:00,81.2,66.5,30.00,NNE,32,6.0,13.0,61,0.00,,,0.00,WUHU216DAVISVP2,2013-06-21 16:18:00,
2013-06-21 12:23:00,81.2,66.2,30.00,East,82,6.0,14.0,60,0.00,,,0.00,WUHU216DAVISVP2,2013-06-21 16:23:00,
2013-06-21 12:28:00,81.5,66.5,30.01,ESE,112,0.0,14.0,60,0.00,,,0.00,WUHU216DAVISVP2,2013-06-21 16:28:00,
2013-06-21 12:33:00,81.9,65.9,30.00,ENE,71,6.0,13.0,58,0.00,,,0.00,WUHU216DAVISVP2,2013-06-21 16:33:00,
2013-06-21 12:38:00,81.6,65.9,30.01,ENE,72,2.0,10.0,59,0.00,,,0.00,WUHU216DAVISVP2,2013-06-21 16:38:00,
2013-06-21 12:43:00,81.7,66.5,30.01,ENE,62,1.0,10.0,60,0.00,,,0.00,WUHU216DAVISVP2,2013-06-21 16:43:00,
2013-06-21 12:48:00,82.1,66.1,30.01,ENE,73,4.0,10.0,58,0.00,,,0.00,WUHU216DAVISVP2,2013-06-21 16:48:00,
2013-06-21 12:53:00,81.9,65.9,30.01,ESE,110,7.0,10.0,58,0.00,,,0.00,WUHU216DAVISVP2,2013-06-21 16:53:00,
2013-06-21 12:58:00,81.4,64.9,30.01,ESE,104,4.0,10.0,57,0.00,,,0.00,WUHU216DAVISVP2,2013-06-21 16:58:00,
2013-06-21 13:03:00,81.4,65.9,30.01,NE,37,1.0,10.0,59,0.00,,,0.00,WUHU216DAVISVP2,2013-06-21 17:03:00,
2013-06-21 13:08:00,81.5,65.8,30.01,NE,47,5.0,9.0,59,0.00,,,0.00,WUHU216DAVISVP2,2013-06-21 17:08:00,
2013-06-21 13:13:00,81.7,66.5,30.01,North,354,2.0,9.0,60,0.00,,,0.00,WUHU216DAVISVP2,2013-06-21 17:13:00,
2013-06-21 13:18:00,81.7,66.2,30.01,East,85,4.0,11.0,59,0.00,,,0.00,WUHU216DAVISVP2,2013-06-21 17:18:00,
2013-06-21 13:23:00,81.8,65.8,30.01,ENE,70,2.0,11.0,58,0.00,,,0.00,WUHU216DAVISVP2,2013-06-21 17:23:00,
2013-06-21 13:28:00,81.8,65.8,30.01,East,79,3.0,12.0,58,0.00,,,0.00,WUHU216DAVISVP2,2013-06-21 17:28:00,
2013-06-21 13:33:00,81.7,65.2,30.01,NE,47,5.0,12.0,57,0.00,,,0.00,WUHU216DAVISVP2,2013-06-21 17:33:00,
2013-06-21 13:39:00,81.3,65.8,30.01,NE,41,2.0,15.0,59,0.00,,,0.00,WUHU216DAVISVP2,2013-06-21 17:39:00,
2013-06-21 13:44:00,81.4,65.9,30.01,NE,46,3.0,15.0,59,0.00,,,0.00,WUHU216DAVISVP2,2013-06-21 17:44:00,
2013-06-21 13:45:00,81.4,64.4,30.01,NNE,18,3.0,14.0,56,0.00,,,0.00,WUHU216DAVISVP2,2013-06-21 17:45:00,
2013-06-21 13:46:00,81.4,64.4,30.01,NE,41,3.0,14.0,56,0.00,,,0.00,WUHU216DAVISVP2,2013-06-21 17:46:00,
2013-06-21 13:47:00,81.4,64.9,30.01,NNE,22,7.0,14.0,57,0.00,,,0.00,WUHU216DAVISVP2,2013-06-21 17:47:00,
2013-06-21 13:52:00,81.2,64.7,30.02,NE,41,7.0,14.0,57,0.00,,,0.00,WUHU216DAVISVP2,2013-06-21 17:52:00,
2013-06-21 13:57:00,81.0,64.0,30.02,NNE,16,7.0,13.0,56,0.00,,,0.00,WUHU216DAVISVP2,2013-06-21 17:57:00,
2013-06-21 14:02:00,80.9,66.0,30.02,NE,46,2.0,13.0,60,0.00,,,0.00,WUHU216DAVISVP2,2013-06-21 18:02:00,
2013-06-21 14:07:00,80.8,64.4,30.02,ENE,67,6.0,11.0,57,0.00,,,0.00,WUHU216DAVISVP2,2013-06-21 18:07:00,
2013-06-21 14:12:00,80.7,65.3,30.02,NE,38,9.0,11.0,59,0.00,,,0.00,WUHU216DAVISVP2,2013-06-21 18:12:00,
2013-06-21 14:18:00,80.7,65.3,30.01,NNE,21,3.0,10.0,59,0.00,,,0.00,WUHU216DAVISVP2,2013-06-21 18:18:00,
2013-06-21 14:23:00,80.8,65.4,30.01,NNW,340,3.0,10.0,59,0.00,,,0.00,WUHU216DAVISVP2,2013-06-21 18:23:00,
2013-06-21 14:24:00,80.9,66.0,30.01,NNE,28,6.0,10.0,60,0.00,,,0.00,WUHU216DAVISVP2,2013-06-21 18:24:00,
2013-06-21 14:29:00,80.9,66.0,30.01,NNE,25,3.0,10.0,60,0.00,,,0.00,WUHU216DAVISVP2,2013-06-21 18:29:00,
2013-06-21 14:34:00,81.0,65.6,30.00,NNW,335,5.0,10.0,59,0.00,,,0.00,WUHU216DAVISVP2,2013-06-21 18:34:00,
2013-06-21 14:39:00,81.0,65.6,30.00,NE,36,7.0,12.0,59,0.00,,,0.00,WUHU216DAVISVP2,2013-06-21 18:39:00,
2013-06-21 14:44:00,81.1,66.1,30.00,ESE,113,2.0,12.0,60,0.00,,,0.00,WUHU216DAVISVP2,2013-06-21 18:44:00,
2013-06-21 14:45:00,81.2,65.7,29.99,North,5,6.0,12.0,59,0.00,,,0.00,WUHU216DAVISVP2,2013-06-21 18:45:00,
2013-06-21 14:46:00,81.2,65.7,29.99,North,356,2.0,12.0,59,0.00,,,0.00,WUHU216DAVISVP2,2013-06-21 18:46:00,
2013-06-21 14:51:00,81.2,65.5,29.99,NNW,342,3.0,11.0,59,0.00,,,0.00,WUHU216DAVISVP2,2013-06-21 18:51:00,
2013-06-21 14:56:00,81.0,65.8,29.98,NNE,32,4.0,12.0,60,0.00,,,0.00,WUHU216DAVISVP2,2013-06-21 18:56:00,
2013-06-21 15:01:00,81.0,66.0,29.98,NE,51,3.0,12.0,60,0.00,,,0.00,WUHU216DAVISVP2,2013-06-21 19:01:00,
2013-06-21 15:06:00,81.0,65.6,29.98,NNW,336,2.0,14.0,59,0.00,,,0.00,WUHU216DAVISVP2,2013-06-21 19:06:00,
2013-06-21 15:12:00,81.0,66.0,29.97,NE,50,4.0,14.0,60,0.00,,,0.00,WUHU216DAVISVP2,2013-06-21 19:12:00,
2013-06-21 15:17:00,80.9,66.0,29.97,North,358,13.0,13.0,60,0.00,,,0.00,WUHU216DAVISVP2,2013-06-21 19:17:00,
2013-06-21 15:20:00,80.8,65.9,29.97,ENE,77,6.0,13.0,60,0.00,,,0.00,WUHU216DAVISVP2,2013-06-21 19:20:00,
2013-06-21 15:25:00,80.8,66.8,29.96,NNW,340,4.0,13.0,62,0.00,,,0.00,WUHU216DAVISVP2,2013-06-21 19:25:00,
2013-06-21 15:30:00,80.7,65.8,29.95,NE,40,7.0,12.0,60,0.00,,,0.00,WUHU216DAVISVP2,2013-06-21 19:30:00,
2013-06-21 15:35:00,80.5,65.1,29.94,North,356,4.0,14.0,59,0.00,,,0.00,WUHU216DAVISVP2,2013-06-21 19:35:00,
2013-06-21 15:40:00,80.4,66.0,29.93,NW,323,1.0,14.0,61,0.00,,,0.00,WUHU216DAVISVP2,2013-06-21 19:40:00,
2013-06-21 15:42:00,80.4,65.5,29.93,NNW,340,4.0,14.0,60,0.00,,,0.00,WUHU216DAVISVP2,2013-06-21 19:42:00,
2013-06-21 15:47:00,80.4,65.5,29.92,WNW,296,10.0,13.0,60,0.00,,,0.00,WUHU216DAVISVP2,2013-06-21 19:47:00,
2013-06-21 15:52:00,80.3,65.9,29.91,NNW,338,7.0,16.0,61,0.00,,,0.00,WUHU216DAVISVP2,2013-06-21 19:52:00,
2013-06-21 15:57:00,80.3,65.9,29.91,NW,309,5.0,16.0,61,0.00,,,0.00,WUHU216DAVISVP2,2013-06-21 19:57:00,
2013-06-21 16:02:00,80.3,65.9,29.90,NW,321,4.0,17.0,61,0.00,,,0.00,WUHU216DAVISVP2,2013-06-21 20:02:00,
2013-06-21 16:04:00,80.3,65.4,29.90,North,351,9.0,17.0,60,0.00,,,0.00,WUHU216DAVISVP2,2013-06-21 20:04:00,
2013-06-21 16:08:00,80.2,65.3,29.89,North,350,6.0,17.0,60,0.00,,,0.00,WUHU216DAVISVP2,2013-06-21 20:08:00,
2013-06-21 16:11:00,80.1,65.2,29.89,NNW,337,6.0,17.0,60,0.00,,,0.00,WUHU216DAVISVP2,2013-06-21 20:11:00,
2013-06-21 16:14:00,80.1,65.7,29.89,NW,326,9.0,17.0,61,0.00,,,0.00,WUHU216DAVISVP2,2013-06-21 20:14:00,
2013-06-21 16:19:00,80.2,65.3,29.88,NNE,26,9.0,18.0,60,0.00,,,0.00,WUHU216DAVISVP2,2013-06-21 20:19:00,
2013-06-21 16:24:00,80.2,65.8,29.88,NNE,20,4.0,18.0,61,0.00,,,0.00,WUHU216DAVISVP2,2013-06-21 20:24:00,
2013-06-21 16:29:00,80.1,66.1,29.88,NW,326,1.0,17.0,62,0.00,,,0.00,WUHU216DAVISVP2,2013-06-21 20:29:00,
2013-06-21 16:34:00,80.1,66.1,29.88,NNE,30,7.0,18.0,62,0.00,,,0.00,WUHU216DAVISVP2,2013-06-21 20:34:00,
2013-06-21 16:39:00,80.0,66.1,29.88,North,351,6.0,18.0,62,0.00,,,0.00,WUHU216DAVISVP2,2013-06-21 20:39:00,
2013-06-21 16:44:00,79.9,66.4,29.88,East,90,3.0,18.0,63,0.00,,,0.00,WUHU216DAVISVP2,2013-06-21 20:44:00,
2013-06-21 16:49:00,79.9,66.4,29.88,NNW,340,3.0,16.0,63,0.00,,,0.00,WUHU216DAVISVP2,2013-06-21 20:49:00,
2013-06-21 16:54:00,79.9,66.4,29.89,North,6,6.0,16.0,63,0.00,,,0.00,WUHU216DAVISVP2,2013-06-21 20:54:00,
2013-06-21 16:59:00,79.9,66.0,29.89,North,356,5.0,15.0,62,0.00,,,0.00,WUHU216DAVISVP2,2013-06-21 20:59:00,
2013-06-21 17:04:00,79.8,66.3,29.88,North,354,10.0,14.0,63,0.00,,,0.00,WUHU216DAVISVP2,2013-06-21 21:04:00,
2013-06-21 17:09:00,79.7,66.2,29.88,WNW,303,7.0,14.0,63,0.00,,,0.00,WUHU216DAVISVP2,2013-06-21 21:09:00,
2013-06-21 17:14:00,79.6,66.1,29.88,North,11,4.0,13.0,63,0.00,,,0.00,WUHU216DAVISVP2,2013-06-21 21:14:00,
2013-06-21 17:19:00,79.7,66.2,29.88,NE,50,4.0,13.0,63,0.00,,,0.00,WUHU216DAVISVP2,2013-06-21 21:19:00,
2013-06-21 17:24:00,79.8,66.3,29.88,North,352,2.0,13.0,63,0.00,,,0.00,WUHU216DAVISVP2,2013-06-21 21:24:00,
2013-06-21 17:29:00,80.1,66.6,29.88,NW,323,7.0,13.0,63,0.00,,,0.00,WUHU216DAVISVP2,2013-06-21 21:29:00,
2013-06-21 17:34:00,80.4,66.6,29.88,NNE,15,8.0,13.0,63,0.00,,,0.00,WUHU216DAVISVP2,2013-06-21 21:34:00,
2013-06-21 17:39:00,80.9,68.3,29.88,North,354,4.0,13.0,65,0.00,,,0.00,WUHU216DAVISVP2,2013-06-21 21:39:00,
2013-06-21 17:44:00,81.0,66.5,29.88,North,354,5.0,12.0,61,0.00,,,0.00,WUHU216DAVISVP2,2013-06-21 21:44:00,
2013-06-21 17:49:00,80.8,65.9,29.88,NNW,347,9.0,15.0,60,0.00,,,0.00,WUHU216DAVISVP2,2013-06-21 21:49:00,
2013-06-21 17:54:00,80.6,66.1,29.89,NNW,340,3.0,16.0,61,0.00,,,0.00,WUHU216DAVISVP2,2013-06-21 21:54:00,
2013-06-21 17:59:00,80.6,66.1,29.89,North,6,7.0,16.0,61,0.00,,,0.00,WUHU216DAVISVP2,2013-06-21 21:59:00,
2013-06-21 18:04:00,80.6,65.7,29.89,NNE,29,6.0,15.0,60,0.00,,,0.00,WUHU216DAVISVP2,2013-06-21 22:04:00,
2013-06-21 18:09:00,80.7,66.0,29.89,NNE,23,4.0,15.0,61,0.00,,,0.00,WUHU216DAVISVP2,2013-06-21 22:09:00,
2013-06-21 18:15:00,80.6,65.4,29.89,NNE,21,2.0,12.0,60,0.00,,,0.00,WUHU216DAVISVP2,2013-06-21 22:15:00,
2013-06-21 18:20:00,80.8,66.6,29.89,NNE,23,7.0,11.0,62,0.00,,,0.00,WUHU216DAVISVP2,2013-06-21 22:20:00,
2013-06-21 18:25:00,80.9,66.4,29.89,North,9,3.0,11.0,61,0.00,,,0.00,WUHU216DAVISVP2,2013-06-21 22:25:00,
2013-06-21 18:30:00,81.1,66.1,29.89,NNW,347,7.0,12.0,60,0.00,,,0.00,WUHU216DAVISVP2,2013-06-21 22:30:00,
2013-06-21 18:35:00,81.4,66.4,29.89,North,349,4.0,12.0,60,0.00,,,0.00,WUHU216DAVISVP2,2013-06-21 22:35:00,
2013-06-21 18:40:00,81.6,66.6,29.89,NNW,329,8.0,11.0,60,0.00,,,0.00,WUHU216DAVISVP2,2013-06-21 22:40:00,
2013-06-21 18:45:00,81.9,66.6,29.89,NNW,329,5.0,11.0,60,0.00,,,0.00,WUHU216DAVISVP2,2013-06-21 22:45:00,
2013-06-21 18:50:00,82.2,67.2,29.90,NE,47,4.0,10.0,60,0.00,,,0.00,WUHU216DAVISVP2,2013-06-21 22:50:00,
2013-06-21 18:55:00,82.3,67.3,29.89,NE,50,4.0,10.0,60,0.00,,,0.00,WUHU216DAVISVP2,2013-06-21 22:55:00,
2013-06-21 19:00:00,82.5,67.5,29.90,North,355,4.0,9.0,60,0.00,,,0.00,WUHU216DAVISVP2,2013-06-21 23:00:00,
2013-06-21 19:05:00,82.4,67.1,29.90,NNE,27,0.0,9.0,60,0.00,,,0.00,WUHU216DAVISVP2,2013-06-21 23:05:00,
2013-06-21 19:10:00,82.2,66.0,29.90,North,354,5.0,12.0,58,0.00,,,0.00,WUHU216DAVISVP2,2013-06-21 23:10:00,
2013-06-21 19:15:00,82.1,66.4,29.90,NW,323,1.0,12.0,59,0.00,,,0.00,WUHU216DAVISVP2,2013-06-21 23:15:00,
2013-06-21 19:20:00,81.9,65.4,29.90,NNE,18,5.0,13.0,57,0.00,,,0.00,WUHU216DAVISVP2,2013-06-21 23:20:00,
2013-06-21 19:25:00,81.9,66.4,29.90,NE,56,5.0,13.0,59,0.00,,,0.00,WUHU216DAVISVP2,2013-06-21 23:25:00,
2013-06-21 19:30:00,81.9,66.4,29.90,North,7,0.0,13.0,59,0.00,,,0.00,WUHU216DAVISVP2,2013-06-21 23:30:00,
2013-06-21 19:35:00,81.9,66.4,29.90,NE,50,1.0,13.0,59,0.00,,,0.00,WUHU216DAVISVP2,2013-06-21 23:35:00,
2013-06-21 19:40:00,81.9,66.9,29.90,ENE,73,1.0,10.0,60,0.00,,,0.00,WUHU216DAVISVP2,2013-06-21 23:40:00,
2013-06-21 19:45:00,81.6,65.9,29.90,NE,41,4.0,10.0,59,0.00,,,0.00,WUHU216DAVISVP2,2013-06-21 23:45:00,
2013-06-21 19:50:00,81.4,65.7,29.91,East,84,1.0,10.0,59,0.00,,,0.00,WUHU216DAVISVP2,2013-06-21 23:50:00,
2013-06-21 19:55:00,81.2,65.5,29.91,East,89,4.0,9.0,59,0.00,,,0.00,WUHU216DAVISVP2,2013-06-21 23:55:00,
2013-06-21 20:00:00,80.9,65.5,29.91,NE,40,4.0,13.0,59,0.00,,,0.00,WUHU216DAVISVP2,2013-06-22 00:00:00,
2013-06-21 20:05:00,80.6,65.7,29.91,NNW,340,1.0,13.0,60,0.00,,,0.00,WUHU216DAVISVP2,2013-06-22 00:05:00,
2013-06-21 20:10:00,80.2,64.8,29.91,NE,39,5.0,12.0,59,0.00,,,0.00,WUHU216DAVISVP2,2013-06-22 00:10:00,
2013-06-21 20:15:00,79.9,65.0,29.91,North,360,8.0,13.0,60,0.00,,,0.00,WUHU216DAVISVP2,2013-06-22 00:15:00,
2013-06-21 20:20:00,79.6,65.2,29.91,NNE,23,3.0,13.0,61,0.00,,,0.00,WUHU216DAVISVP2,2013-06-22 00:20:00,
2013-06-21 20:25:00,79.4,65.0,29.91,ENE,63,1.0,12.0,61,0.00,,,0.00,WUHU216DAVISVP2,2013-06-22 00:25:00,
2013-06-21 20:30:00,79.2,65.3,29.91,ENE,70,3.0,12.0,62,0.00,,,0.00,WUHU216DAVISVP2,2013-06-22 00:30:00,
2013-06-21 20:35:00,78.8,64.7,29.91,NE,34,4.0,7.0,62,0.00,,,0.00,WUHU216DAVISVP2,2013-06-22 00:35:00,
2013-06-21 20:40:00,78.4,64.5,29.91,NNW,335,2.0,7.0,62,0.00,,,0.00,WUHU216DAVISVP2,2013-06-22 00:40:00,
2013-06-21 20:45:00,78.0,64.6,29.91,North,359,0.0,6.0,63,0.00,,,0.00,WUHU216DAVISVP2,2013-06-22 00:45:00,
2013-06-21 20:50:00,77.7,64.8,29.91,NE,41,1.0,6.0,64,0.00,,,0.00,WUHU216DAVISVP2,2013-06-22 00:50:00,
2013-06-21 20:55:00,77.3,64.2,29.91,ENE,70,0.0,6.0,64,0.00,,,0.00,WUHU216DAVISVP2,2013-06-22 00:55:00,
2013-06-21 21:00:00,77.0,64.3,29.91,NNE,27,1.0,5.0,65,0.00,,,0.00,WUHU216DAVISVP2,2013-06-22 01:00:00,
2013-06-21 21:05:00,76.6,64.6,29.91,ENE,76,0.0,3.0,66,0.00,,,0.00,WUHU216DAVISVP2,2013-06-22 01:05:00,
2013-06-21 21:10:00,76.2,64.2,29.91,North,7,0.0,3.0,66,0.00,,,0.00,WUHU216DAVISVP2,2013-06-22 01:10:00,
2013-06-21 21:15:00,76.0,64.5,29.91,ESE,108,0.0,3.0,67,0.00,,,0.00,WUHU216DAVISVP2,2013-06-22 01:15:00,
2013-06-21 21:20:00,75.8,64.3,29.91,ENE,57,1.0,8.0,67,0.00,,,0.00,WUHU216DAVISVP2,2013-06-22 01:20:00,
2013-06-21 21:25:00,75.9,64.4,29.91,NNE,33,4.0,8.0,67,0.00,,,0.00,WUHU216DAVISVP2,2013-06-22 01:25:00,
2013-06-21 21:30:00,75.8,64.3,29.91,ENE,57,0.0,7.0,67,0.00,,,0.00,WUHU216DAVISVP2,2013-06-22 01:30:00,
2013-06-21 21:35:00,75.7,64.2,29.92,ENE,75,1.0,7.0,67,0.00,,,0.00,WUHU216DAVISVP2,2013-06-22 01:35:00,
2013-06-21 21:40:00,75.6,64.1,29.91,NW,319,2.0,6.0,67,0.00,,,0.00,WUHU216DAVISVP2,2013-06-22 01:40:00,
2013-06-21 21:45:00,75.6,63.9,29.92,East,85,2.0,6.0,67,0.00,,,0.00,WUHU216DAVISVP2,2013-06-22 01:45:00,
2013-06-21 21:50:00,75.5,64.0,29.92,NE,37,2.0,6.0,67,0.00,,,0.00,WUHU216DAVISVP2,2013-06-22 01:50:00,
2013-06-21 21:55:00,75.3,63.8,29.92,ENE,71,1.0,5.0,67,0.00,,,0.00,WUHU216DAVISVP2,2013-06-22 01:55:00,
2013-06-21 22:00:00,75.1,64.0,29.92,NNE,33,0.0,5.0,68,0.00,,,0.00,WUHU216DAVISVP2,2013-06-22 02:00:00,
2013-06-21 22:05:00,74.8,64.2,29.92,East,98,0.0,3.0,69,0.00,,,0.00,WUHU216DAVISVP2,2013-06-22 02:05:00,
2013-06-21 22:10:00,74.6,64.0,29.93,ESE,108,1.0,3.0,69,0.00,,,0.00,WUHU216DAVISVP2,2013-06-22 02:10:00,
2013-06-21 22:15:00,74.5,64.3,29.93,ENE,71,1.0,3.0,70,0.00,,,0.00,WUHU216DAVISVP2,2013-06-22 02:15:00,
2013-06-21 22:20:00,74.3,64.1,29.93,East,86,0.0,3.0,70,0.00,,,0.00,WUHU216DAVISVP2,2013-06-22 02:20:00,
2013-06-21 22:25:00,74.1,64.1,29.93,NNE,27,0.0,5.0,71,0.00,,,0.00,WUHU216DAVISVP2,2013-06-22 02:25:00,
2013-06-21 22:30:00,74.0,64.2,29.93,North,5,3.0,5.0,71,0.00,,,0.00,WUHU216DAVISVP2,2013-06-22 02:30:00,
2013-06-21 22:35:00,73.9,64.5,29.94,East,98,2.0,5.0,72,0.00,,,0.00,WUHU216DAVISVP2,2013-06-22 02:35:00,
2013-06-21 22:40:00,73.8,64.4,29.94,East,91,1.0,5.0,72,0.00,,,0.00,WUHU216DAVISVP2,2013-06-22 02:40:00,
2013-06-21 22:45:00,73.6,64.6,29.94,ENE,69,0.0,4.0,73,0.00,,,0.00,WUHU216DAVISVP2,2013-06-22 02:45:00,
2013-06-21 22:50:00,73.3,64.7,29.93,NE,49,3.0,5.0,74,0.00,,,0.00,WUHU216DAVISVP2,2013-06-22 02:50:00,
2013-06-21 22:55:00,73.2,64.6,29.94,East,88,2.0,5.0,74,0.00,,,0.00,WUHU216DAVISVP2,2013-06-22 02:55:00,
2013-06-21 23:00:00,73.1,64.3,29.94,ENE,57,1.0,5.0,74,0.00,,,0.00,WUHU216DAVISVP2,2013-06-22 03:00:00,
2013-06-21 23:05:00,73.0,64.8,29.94,ENE,67,2.0,5.0,75,0.00,,,0.00,WUHU216DAVISVP2,2013-06-22 03:05:00,
2013-06-21 23:10:00,72.9,64.7,29.94,ENE,65,3.0,6.0,75,0.00,,,0.00,WUHU216DAVISVP2,2013-06-22 03:10:00,
2013-06-21 23:15:00,72.8,64.6,29.94,ENE,67,2.0,6.0,75,0.00,,,0.00,WUHU216DAVISVP2,2013-06-22 03:15:00,
2013-06-21 23:20:00,72.6,64.7,29.94,ENE,57,0.0,5.0,76,0.00,,,0.00,WUHU216DAVISVP2,2013-06-22 03:20:00,
2013-06-21 23:25:00,72.3,64.7,29.94,ESE,107,2.0,5.0,77,0.00,,,0.00,WUHU216DAVISVP2,2013-06-22 03:25:00,
2013-06-21 23:30:00,72.0,64.9,29.95,ENE,57,3.0,6.0,78,0.00,,,0.00,WUHU216DAVISVP2,2013-06-22 03:30:00,
2013-06-21 23:35:00,71.8,64.7,29.94,NE,46,3.0,6.0,78,0.00,,,0.00,WUHU216DAVISVP2,2013-06-22 03:35:00,
2013-06-21 23:40:00,71.6,64.8,29.94,ENE,65,2.0,6.0,79,0.00,,,0.00,WUHU216DAVISVP2,2013-06-22 03:40:00,
2013-06-21 23:45:00,71.4,65.0,29.95,East,91,6.0,12.0,80,0.00,,,0.00,WUHU216DAVISVP2,2013-06-22 03:45:00,
2013-06-21 23:50:00,71.4,64.9,29.94,ENE,58,3.0,12.0,80,0.00,,,0.00,WUHU216DAVISVP2,2013-06-22 03:50:00,
2013-06-21 23:55:00,71.3,65.2,29.94,ENE,72,6.0,12.0,81,0.00,,,0.00,WUHU216DAVISVP2,2013-06-22 03:55:00,